Simultaneous Nadir Overpasses (SNOs) Predictions

Prediction of SNOs between LANDSAT-8 and METOP-B Satellite Orbit:

Table of predicted SNOs for the next 14.0 days since TLE Epoch: 3/6/2021
Index Date (LANDSAT-8) Time (LANDSAT-8) Lat,Lon (LANDSAT-8) SZA (LANDSAT-8 ) Date (METOP-B) Time (METOP-B) Lat,Lon (METOP-B) SZA (METOP-B ) Distance(km) Time Diff (sec)
1 03/08/2021 10:49:06 81.13, 57.46 87.58 03/08/2021 10:48:57 81.14, 57.52 87.59 1.03 9
2 03/08/2021 11:38:32 -81.15,-134.62 92.40 03/08/2021 11:39:37 -81.15,-134.66 92.37 0.65 65
3 03/11/2021 05:34:10 -80.70, -49.51 94.37 03/11/2021 05:32:56 -80.84, -49.99 94.30 18.65 74
4 03/11/2021 06:23:20 81.12, 123.74 86.48 03/11/2021 06:23:19 81.12, 123.63 86.47 1.95 1
5 03/11/2021 07:12:45 -81.17, -67.95 93.45 03/11/2021 07:13:57 -81.17, -67.80 93.40 2.58 72
6 03/14/2021 01:08:08 -81.11, 22.31 94.64 03/14/2021 01:07:01 -81.11, 22.30 94.66 0.31 67
7 03/14/2021 01:57:33 81.13,-169.65 85.41 03/14/2021 01:57:39 81.14,-169.52 85.43 2.23 6
8 03/16/2021 20:42:20 -81.12, 88.91 95.70 03/16/2021 20:41:21 -81.11, 88.75 95.74 2.81 59
9 03/16/2021 21:31:45 81.14,-103.07 84.35 03/16/2021 21:31:59 81.14,-103.06 84.35 0.23 14
10 03/19/2021 16:16:33 -81.13, 155.48 96.77 03/19/2021 16:15:41 -81.13, 155.57 96.78 1.50 52



Historial Predications of SNOs between LANDSAT-8 and METOP-B
